| time (UTC) | temp F | wind direction | speed MPH | gust MPH | rain 1hr in | rain 24hr in | rain mn in | humidity % | barometer mb |
| 20260504004547 | 55 | 0 | 0.0 | 0.0 | 0.00 | 0.01 | 0.00 | 75 | 1017.6 |
| 20260504004032 | 56 | 0 | 0.0 | 0.0 | 0.00 | 0.01 | 0.00 | 76 | 1017.5 |
| 20260504003532 | 56 | 0 | 0.0 | 0.0 | 0.00 | 0.01 | 0.00 | 74 | 1017.6 |
| 20260504003048 | 56 | 0 | 0.0 | 0.0 | 0.00 | 0.01 | 0.00 | 73 | 1017.5 |
| 20260504002532 | 57 | 0 | 0.0 | 0.0 | 0.00 | 0.01 | 0.00 | 73 | 1017.4 |
| 20260504002034 | 57 | 0 | 0.0 | 0.0 | 0.00 | 0.01 | 0.00 | 72 | 1017.3 |
| 20260504001545 | 58 | 0 | 0.0 | 0.0 | 0.00 | 0.01 | 0.00 | 72 | 1017.3 |
| 20260504001032 | 58 | 0 | 0.0 | 0.0 | 0.00 | 0.01 | 0.00 | 70 | 1017.4 |
| 20260504000533 | 59 | 0 | 0.0 | 0.0 | 0.00 | 0.01 | 0.00 | 69 | 1017.3 |
| 20260504000112 | 59 | 0 | 0.0 | 0.0 | 0.00 | 0.01 | 0.00 | 68 | 1017.2 |
| 20260503235533 | 60 | 0 | 0.0 | 0.0 | 0.00 | 0.05 | 0.00 | 67 | 1017.2 |
| 20260503235032 | 60 | 0 | 0.0 | 0.0 | 0.00 | 0.05 | 0.00 | 65 | 1017.1 |
| 20260503234551 | 60 | 0 | 0.0 | 0.0 | 0.00 | 0.05 | 0.00 | 61 | 1017.1 |
| 20260503234032 | 60 | 0 | 0.0 | 0.0 | 0.00 | 0.05 | 0.00 | 60 | 1017.1 |
| 20260503233533 | 60 | 0 | 0.0 | 0.0 | 0.00 | 0.05 | 0.00 | 59 | 1017.1 |
| 20260503233043 | 61 | 0 | 0.0 | 0.0 | 0.00 | 0.05 | 0.00 | 60 | 1017.0 |
| 20260503232533 | 61 | 0 | 0.0 | 0.0 | 0.00 | 0.05 | 0.00 | 57 | 1017.1 |
| 20260503232032 | 61 | 0 | 0.0 | 0.0 | 0.00 | 0.05 | 0.00 | 57 | 1016.9 |
| 20260503231548 | 62 | 0 | 0.0 | 0.0 | 0.00 | 0.05 | 0.00 | 59 | 1017.0 |
| 20260503231033 | 62 | 0 | 0.0 | 0.0 | 0.00 | 0.05 | 0.00 | 59 | 1017.0 |
| 20260503230534 | 62 | 0 | 0.0 | 0.0 | 0.00 | 0.05 | 0.00 | 59 | 1016.9 |
| 20260503230042 | 62 | 0 | 0.0 | 0.0 | 0.00 | 0.05 | 0.00 | 58 | 1016.9 |
| 20260503225534 | 62 | 0 | 0.0 | 0.0 | 0.00 | 0.15 | 0.00 | 57 | 1016.8 |
| 20260503225033 | 63 | 0 | 0.0 | 0.0 | 0.00 | 0.15 | 0.00 | 58 | 1016.8 |
| 20260503224545 | 63 | 0 | 0.0 | 0.0 | 0.00 | 0.15 | 0.00 | 54 | 1016.8 |
| 20260503224034 | 63 | 0 | 0.0 | 0.0 | 0.00 | 0.15 | 0.00 | 54 | 1016.7 |
| 20260503223532 | 63 | 0 | 0.0 | 0.0 | 0.00 | 0.15 | 0.00 | 52 | 1016.7 |
| 20260503223046 | 63 | 0 | 0.0 | 0.0 | 0.00 | 0.15 | 0.00 | 49 | 1016.6 |
| 20260503222532 | 64 | 0 | 0.0 | 0.0 | 0.00 | 0.15 | 0.00 | 52 | 1016.7 |
| 20260503222031 | 64 | 0 | 0.0 | 4.0 | 0.00 | 0.15 | 0.00 | 53 | 1016.6 |
| 20260503221551 | 64 | 0 | 0.0 | 4.0 | 0.00 | 0.15 | 0.00 | 50 | 1016.7 |
| 20260503221032 | 64 | 168 | 0.0 | 2.0 | 0.00 | 0.15 | 0.00 | 49 | 1016.6 |
| 20260503220532 | 64 | 0 | 0.0 | 2.0 | 0.00 | 0.15 | 0.00 | 52 | 1016.7 |
| 20260503220046 | 64 | 0 | 0.0 | 2.0 | 0.00 | 0.15 | 0.00 | 43 | 1016.6 |
| 20260503215533 | 64 | 0 | 0.0 | 1.0 | 0.00 | 0.20 | 0.00 | 48 | 1016.6 |
| 20260503215034 | 64 | 0 | 0.0 | 2.0 | 0.00 | 0.20 | 0.00 | 48 | 1016.5 |
| 20260503214548 | 64 | 0 | 0.0 | 3.0 | 0.00 | 0.20 | 0.00 | 42 | 1016.4 |
| 20260503214032 | 64 | 0 | 0.0 | 3.0 | 0.00 | 0.20 | 0.00 | 46 | 1016.5 |
| 20260503213533 | 63 | 61 | 0.0 | 1.0 | 0.00 | 0.20 | 0.00 | 49 | 1016.4 |
| 20260503213048 | 63 | 0 | 0.0 | 1.0 | 0.00 | 0.20 | 0.00 | 52 | 1016.5 |
| 20260503212537 | 63 | 0 | 0.0 | 1.0 | 0.00 | 0.20 | 0.00 | 41 | 1016.6 |
| 20260503212034 | 63 | 0 | 0.0 | 1.0 | 0.00 | 0.20 | 0.00 | 53 | 1016.6 |
| 20260503211559 | 64 | 0 | 0.0 | 2.0 | 0.00 | 0.20 | 0.00 | 52 | 1016.6 |
| 20260503211034 | 64 | 0 | 0.0 | 2.0 | 0.00 | 0.20 | 0.00 | 43 | 1016.7 |
| 20260503210532 | 64 | 0 | 0.0 | 1.0 | 0.00 | 0.20 | 0.00 | 43 | 1016.7 |
| 20260503210043 | 63 | 0 | 0.0 | 1.0 | 0.00 | 0.20 | 0.00 | 52 | 1016.7 |
| 20260503205534 | 63 | 0 | 0.0 | 3.0 | 0.00 | 0.28 | 0.00 | 51 | 1016.6 |
| 20260503205034 | 64 | 0 | 0.0 | 3.0 | 0.00 | 0.28 | 0.00 | 53 | 1016.6 |
| 20260503204542 | 64 | 132 | 0.0 | 2.0 | 0.00 | 0.28 | 0.00 | 48 | 1016.7 |
| 20260503204032 | 64 | 0 | 0.0 | 2.0 | 0.00 | 0.28 | 0.00 | 48 | 1016.7 |
| 20260503203534 | 64 | 0 | 0.0 | 1.0 | 0.00 | 0.28 | 0.00 | 49 | 1016.7 |
| 20260503203105 | 64 | 0 | 0.0 | 3.0 | 0.00 | 0.28 | 0.00 | 48 | 1016.7 |
| 20260503202533 | 64 | 105 | 0.0 | 3.0 | 0.00 | 0.28 | 0.00 | 42 | 1016.7 |
| 20260503202033 | 64 | 0 | 0.0 | 3.0 | 0.00 | 0.28 | 0.00 | 44 | 1016.7 |
| 20260503201546 | 64 | 0 | 0.0 | 5.0 | 0.00 | 0.28 | 0.00 | 51 | 1016.7 |
| 20260503201033 | 64 | 0 | 0.0 | 5.0 | 0.00 | 0.28 | 0.00 | 52 | 1016.8 |
| 20260503200536 | 64 | 157 | 1.0 | 4.0 | 0.00 | 0.28 | 0.00 | 52 | 1016.6 |
| 20260503200047 | 64 | 5 | 0.0 | 2.0 | 0.00 | 0.28 | 0.00 | 46 | 1016.8 |
| 20260503195530 | 64 | 0 | 0.0 | 2.0 | 0.00 | 0.31 | 0.00 | 43 | 1016.8 |
| 20260503195034 | 64 | 0 | 0.0 | 2.0 | 0.00 | 0.31 | 0.00 | 48 | 1016.8 |
| 20260503194547 | 64 | 0 | 0.0 | 2.0 | 0.00 | 0.31 | 0.00 | 46 | 1016.9 |
| 20260503194032 | 64 | 0 | 0.0 | 2.0 | 0.00 | 0.31 | 0.00 | 46 | 1016.9 |
| 20260503193532 | 63 | 0 | 0.0 | 3.0 | 0.00 | 0.31 | 0.00 | 41 | 1017.0 |
| 20260503193044 | 63 | 0 | 0.0 | 3.0 | 0.00 | 0.31 | 0.00 | 41 | 1017.1 |
| 20260503192532 | 64 | 265 | 0.0 | 4.0 | 0.00 | 0.31 | 0.00 | 46 | 1017.2 |
| 20260503192033 | 64 | 0 | 0.0 | 4.0 | 0.00 | 0.31 | 0.00 | 41 | 1017.2 |
| 20260503191551 | 64 | 319 | 0.0 | 6.0 | 0.00 | 0.31 | 0.00 | 42 | 1017.4 |
| 20260503191033 | 64 | 150 | 0.0 | 6.0 | 0.00 | 0.31 | 0.00 | 43 | 1017.4 |
| 20260503190534 | 64 | 100 | 0.0 | 3.0 | 0.00 | 0.31 | 0.00 | 40 | 1017.5 |
| 20260503190044 | 64 | 0 | 0.0 | 3.0 | 0.00 | 0.31 | 0.00 | 46 | 1017.7 |
| 20260503185534 | 64 | 0 | 0.0 | 3.0 | 0.00 | 0.34 | 0.00 | 50 | 1017.6 |
| 20260503185033 | 64 | 297 | 0.0 | 3.0 | 0.00 | 0.34 | 0.00 | 48 | 1017.7 |
| 20260503184549 | 64 | 0 | 0.0 | 3.0 | 0.00 | 0.34 | 0.00 | 40 | 1017.7 |
| 20260503184033 | 64 | 0 | 1.0 | 3.0 | 0.00 | 0.34 | 0.00 | 47 | 1017.8 |
| 20260503183533 | 64 | 0 | 1.0 | 3.0 | 0.00 | 0.34 | 0.00 | 46 | 1017.8 |
| 20260503183046 | 64 | 274 | 0.0 | 3.0 | 0.00 | 0.34 | 0.00 | 42 | 1017.9 |
| 20260503182532 | 64 | 0 | 0.0 | 3.0 | 0.00 | 0.34 | 0.00 | 45 | 1017.9 |
| 20260503182033 | 64 | 180 | 0.0 | 2.0 | 0.00 | 0.34 | 0.00 | 51 | 1017.9 |
| 20260503181549 | 64 | 0 | 0.0 | 2.0 | 0.00 | 0.34 | 0.00 | 42 | 1018.0 |
| 20260503181034 | 63 | 0 | 0.0 | 2.0 | 0.00 | 0.34 | 0.00 | 47 | 1018.0 |
| 20260503180534 | 63 | 0 | 0.0 | 3.0 | 0.00 | 0.34 | 0.00 | 44 | 1018.0 |
| 20260503180049 | 63 | 0 | 0.0 | 3.0 | 0.00 | 0.34 | 0.00 | 51 | 1018.1 |
| 20260503175533 | 63 | 0 | 0.0 | 6.0 | 0.00 | 0.46 | 0.00 | 51 | 1018.1 |
| 20260503175033 | 62 | 0 | 0.0 | 6.0 | 0.00 | 0.46 | 0.00 | 42 | 1018.1 |
| 20260503174550 | 63 | 75 | 1.0 | 6.0 | 0.00 | 0.46 | 0.00 | 41 | 1018.2 |
| 20260503174033 | 63 | 0 | 0.0 | 3.0 | 0.00 | 0.46 | 0.00 | 42 | 1018.2 |
| 20260503173533 | 63 | 73 | 0.0 | 5.0 | 0.00 | 0.46 | 0.00 | 47 | 1018.2 |
| 20260503173054 | 63 | 287 | 1.0 | 5.0 | 0.00 | 0.46 | 0.00 | 50 | 1018.3 |
| 20260503172534 | 62 | 0 | 0.0 | 5.0 | 0.00 | 0.46 | 0.00 | 51 | 1018.2 |
| 20260503172033 | 62 | 0 | 0.0 | 5.0 | 0.00 | 0.46 | 0.00 | 48 | 1018.3 |
| 20260503171549 | 62 | 142 | 1.0 | 7.0 | 0.00 | 0.46 | 0.00 | 47 | 1018.3 |
| 20260503171033 | 61 | 101 | 1.0 | 7.0 | 0.00 | 0.46 | 0.00 | 43 | 1018.3 |
| 20260503170534 | 61 | 0 | 1.0 | 4.0 | 0.00 | 0.46 | 0.00 | 54 | 1018.4 |
| 20260503150533 | 57 | 0 | 0.0 | 7.0 | 0.00 | 0.57 | 0.00 | 70 | 1018.7 |
| 20260503131035 | 50 | 304 | 1.0 | 5.0 | 0.00 | 0.57 | 0.00 | 87 | 1018.2 |
| 20260503130535 | 49 | 67 | 1.0 | 6.0 | 0.00 | 0.57 | 0.00 | 88 | 1018.2 |
| 20260503110533 | 47 | 0 | 0.0 | 0.0 | 0.00 | 0.63 | 0.00 | 94 | 1016.7 |
| 20260503081547 | 49 | 0 | 0.0 | 0.0 | 0.00 | 0.66 | 0.00 | 94 | 1014.7 |
| 20260503081032 | 49 | 0 | 0.0 | 0.0 | 0.00 | 0.66 | 0.00 | 94 | 1014.7 |
| 20260503080533 | 49 | 0 | 0.0 | 0.0 | 0.00 | 0.66 | 0.00 | 94 | 1014.7 |
| 20260503072532 | 49 | 0 | 0.0 | 0.0 | 0.00 | 0.66 | 0.00 | 94 | 1014.2 |
| 20260503072033 | 49 | 0 | 0.0 | 0.0 | 0.00 | 0.66 | 0.00 | 94 | 1014.2 |
| 20260503071554 | 49 | 0 | 0.0 | 0.0 | 0.00 | 0.66 | 0.00 | 94 | 1014.2 |
| 20260503071033 | 49 | 0 | 0.0 | 0.0 | 0.00 | 0.66 | 0.00 | 94 | 1014.3 |
| 20260503070531 | 49 | 0 | 0.0 | 0.0 | 0.00 | 0.66 | 0.00 | 94 | 1014.3 |
| 20260503060105 | 51 | 0 | 0.0 | 0.0 | 0.00 | 0.66 | 0.00 | 94 | 1013.7 |
| 20260503055033 | 51 | 0 | 0.0 | 0.0 | 0.00 | 0.66 | 0.00 | 94 | 1013.6 |
| 20260503054543 | 51 | 0 | 0.0 | 0.0 | 0.00 | 0.66 | 0.00 | 94 | 1013.5 |
| 20260503054033 | 51 | 0 | 0.0 | 0.0 | 0.00 | 0.66 | 0.00 | 94 | 1013.4 |
| 20260503053534 | 51 | 0 | 0.0 | 0.0 | 0.00 | 0.66 | 0.00 | 94 | 1013.5 |
| 20260503053046 | 51 | 0 | 0.0 | 0.0 | 0.00 | 0.66 | 0.00 | 94 | 1013.6 |
| 20260503052533 | 51 | 0 | 0.0 | 0.0 | 0.00 | 0.66 | 0.00 | 94 | 1013.5 |
| 20260503052033 | 51 | 0 | 0.0 | 0.0 | 0.00 | 0.66 | 0.00 | 94 | 1013.4 |
| 20260503051548 | 51 | 0 | 0.0 | 0.0 | 0.00 | 0.66 | 0.00 | 94 | 1013.5 |
| 20260503051032 | 51 | 0 | 0.0 | 0.0 | 0.00 | 0.66 | 0.00 | 94 | 1013.5 |
| 20260503050533 | 51 | 0 | 0.0 | 0.0 | 0.00 | 0.66 | 0.00 | 94 | 1013.5 |
| 20260503050049 | 51 | 0 | 0.0 | 0.0 | 0.00 | 0.66 | 0.00 | 94 | 1013.5 |
| 20260503045535 | 51 | 0 | 0.0 | 0.0 | 0.00 | 0.66 | 0.00 | 94 | 1013.3 |
| 20260503045032 | 51 | 0 | 0.0 | 0.0 | 0.00 | 0.66 | 0.00 | 94 | 1013.5 |
| 20260503044545 | 51 | 0 | 0.0 | 0.0 | 0.00 | 0.66 | 0.00 | 94 | 1013.4 |
| 20260503044031 | 51 | 0 | 0.0 | 0.0 | 0.00 | 0.66 | 0.00 | 94 | 1013.4 |
| 20260503043533 | 52 | 0 | 0.0 | 0.0 | 0.00 | 0.66 | 0.00 | 94 | 1013.4 |
| 20260503043048 | 51 | 0 | 0.0 | 0.0 | 0.00 | 0.66 | 0.00 | 94 | 1013.2 |
| 20260503042532 | 51 | 0 | 0.0 | 0.0 | 0.00 | 0.66 | 0.00 | 94 | 1013.1 |
| 20260503042033 | 51 | 0 | 0.0 | 0.0 | 0.00 | 0.66 | 0.00 | 94 | 1013.1 |
| 20260503041542 | 51 | 0 | 0.0 | 0.0 | 0.00 | 0.66 | 0.00 | 94 | 1013.1 |
| 20260503041035 | 51 | 0 | 0.0 | 0.0 | 0.00 | 0.66 | 0.00 | 94 | 1013.1 |
| 20260503040532 | 51 | 0 | 0.0 | 0.0 | 0.00 | 0.66 | 0.00 | 94 | 1013.0 |
| 20260503040047 | 51 | 0 | 0.0 | 0.0 | 0.00 | 0.66 | 0.00 | 94 | 1013.0 |
| 20260503035532 | 51 | 0 | 0.0 | 0.0 | 0.00 | 0.66 | 0.66 | 94 | 1012.9 |
| 20260503035032 | 52 | 0 | 0.0 | 0.0 | 0.00 | 0.66 | 0.66 | 94 | 1012.9 |
| 20260503034549 | 52 | 0 | 0.0 | 0.0 | 0.00 | 0.66 | 0.66 | 94 | 1012.9 |
| 20260503034031 | 52 | 0 | 0.0 | 0.0 | 0.00 | 0.66 | 0.66 | 94 | 1013.0 |
| 20260503033532 | 52 | 0 | 0.0 | 0.0 | 0.00 | 0.66 | 0.66 | 94 | 1013.1 |
| 20260503033056 | 52 | 0 | 0.0 | 1.0 | 0.00 | 0.66 | 0.66 | 94 | 1012.9 |
| 20260503032532 | 52 | 0 | 0.0 | 1.0 | 0.00 | 0.66 | 0.66 | 94 | 1013.0 |
| 20260503032032 | 52 | 0 | 0.0 | 1.0 | 0.00 | 0.66 | 0.66 | 94 | 1013.0 |
| 20260503031548 | 52 | 0 | 0.0 | 0.0 | 0.00 | 0.66 | 0.66 | 94 | 1012.9 |
| 20260503031034 | 52 | 0 | 0.0 | 2.0 | 0.00 | 0.66 | 0.66 | 94 | 1013.0 |
| 20260503030532 | 52 | 0 | 0.0 | 2.0 | 0.00 | 0.66 | 0.66 | 94 | 1012.9 |
| 20260503030045 | 52 | 0 | 0.0 | 1.0 | 0.00 | 0.66 | 0.66 | 94 | 1012.8 |
| 20260503025532 | 52 | 0 | 0.0 | 0.0 | 0.01 | 0.66 | 0.66 | 94 | 1012.8 |
| 20260503025032 | 52 | 0 | 0.0 | 0.0 | 0.01 | 0.66 | 0.66 | 94 | 1012.7 |
| 20260503024543 | 52 | 0 | 0.0 | 0.0 | 0.01 | 0.66 | 0.66 | 94 | 1012.8 |
| 20260503024032 | 52 | 0 | 0.0 | 0.0 | 0.01 | 0.66 | 0.66 | 94 | 1012.8 |
| 20260503023531 | 52 | 0 | 0.0 | 2.0 | 0.01 | 0.66 | 0.66 | 94 | 1012.8 |
| 20260503023050 | 52 | 0 | 0.0 | 2.0 | 0.01 | 0.66 | 0.66 | 94 | 1013.0 |
| 20260503022532 | 52 | 0 | 0.0 | 0.0 | 0.01 | 0.66 | 0.66 | 94 | 1013.1 |
| 20260503022034 | 52 | 0 | 0.0 | 0.0 | 0.01 | 0.66 | 0.66 | 94 | 1013.0 |
| 20260503021548 | 52 | 0 | 0.0 | 2.0 | 0.01 | 0.66 | 0.66 | 94 | 1012.9 |
| 20260503021032 | 52 | 0 | 0.0 | 2.0 | 0.01 | 0.66 | 0.66 | 94 | 1012.7 |
| 20260503020532 | 52 | 0 | 0.0 | 0.0 | 0.01 | 0.66 | 0.66 | 94 | 1012.6 |
| 20260503020042 | 52 | 0 | 0.0 | 0.0 | 0.01 | 0.66 | 0.66 | 94 | 1012.7 |
| 20260503015532 | 52 | 0 | 0.0 | 0.0 | 0.00 | 0.65 | 0.65 | 94 | 1012.7 |
| 20260503015033 | 52 | 0 | 0.0 | 0.0 | 0.00 | 0.65 | 0.65 | 94 | 1012.4 |
| 20260503014542 | 52 | 0 | 0.0 | 1.0 | 0.00 | 0.65 | 0.65 | 94 | 1012.4 |
| 20260503014031 | 52 | 0 | 0.0 | 1.0 | 0.00 | 0.65 | 0.65 | 94 | 1012.5 |
| 20260503013531 | 52 | 0 | 0.0 | 1.0 | 0.00 | 0.65 | 0.65 | 93 | 1012.4 |
| 20260503013042 | 52 | 0 | 0.0 | 1.0 | 0.00 | 0.65 | 0.65 | 93 | 1012.4 |
| 20260503012533 | 52 | 0 | 0.0 | 1.0 | 0.00 | 0.65 | 0.65 | 93 | 1012.5 |
| 20260503012033 | 52 | 0 | 0.0 | 3.0 | 0.00 | 0.65 | 0.65 | 93 | 1012.4 |
| 20260503011559 | 52 | 0 | 0.0 | 3.0 | 0.00 | 0.65 | 0.65 | 93 | 1012.4 |
| 20260503011032 | 52 | 0 | 0.0 | 3.0 | 0.00 | 0.65 | 0.65 | 93 | 1012.2 |
| 20260503010532 | 52 | 0 | 0.0 | 4.0 | 0.00 | 0.65 | 0.65 | 93 | 1012.0 |
| 20260503010054 | 52 | 0 | 0.0 | 4.0 | 0.00 | 0.65 | 0.65 | 93 | 1012.2 |
| 20260503005533 | 52 | 0 | 0.0 | 3.0 | 0.00 | 0.65 | 0.65 | 93 | 1012.2 |
| 20260503005032 | 52 | 0 | 0.0 | 0.0 | 0.00 | 0.65 | 0.65 | 93 | 1012.1 |